User: anonymous   Login
Location: Niverville
(49.6028°N, 97.0419°W)
Time: 18:32:31
(UTC-05:00)
Language:

BREEZE-M DEB (TANK) - Orbit

View from above orbital plane
View from above orbital plane
View from above satellite
View from above satellite

Ground track
Ground track

The orbit data is extracted from the following two-line orbital elements,

1 33374U 08044B   16181.37324423  .00000454  00000-0  10243-3 0  9997
2 33374  49.4419 171.9517 5441369 232.5227  64.5678  4.86361478136822
Epoch (UTC): 29 June 2016 08:57:28
Eccentricity: 0.5441369
inclination: 49.4419°
perigee height: 330 km
apogee height: 16344 km
right ascension of ascending node: 171.9517°
argument of perigee: 232.5227°
revolutions per day: 4.86361478
mean anomaly at epoch: 64.5678°
orbit number at epoch: 13682

The dashed part of the orbit path shows where the satellite is in the earth's shadow,  

DLR